When you browse on this site, cookies collect data to enhance your experience and personalize the content and advertising you see.
Visit our Privacy Policy to learn more. By continuing to use the site, you agree to this use of cookies and data.
  • In Austria
  • List of Countries
  • For 7 days
  • Water Temperature
  • Weather Map
  • News
  • Weather Widgets
  • user-avatar
    Login

    Hourly Weather Chapulhuacan

    Today, 23 August, Friday

    Time Temperature Precipitation Wind Pressure Humidity
    00:00 +21°C° 0.1 mm 1 mps 676 mmHg 94%
    01:00 +21°C° 0.1 mm 1 mps 676 mmHg 94%
    02:00 +21°C° 0.1 mm 1 mps 675 mmHg 94%
    03:00 +21°C° 0 mm 1 mps 675 mmHg 92%
    04:00 +21°C° 0 mm 1 mps 675 mmHg 90%
    05:00 +20°C° 0 mm 1 mps 676 mmHg 87%
    06:00 +23°C° 0 mm 1 mps 676 mmHg 80%
    07:00 +23°C° 0 mm 0 mps 677 mmHg 72%
    08:00 +25°C° 0 mm 0 mps 678 mmHg 64%
    09:00 +28°C° 0 mm 1 mps 677 mmHg 61%
    10:00 +30°C° 0 mm 1 mps 677 mmHg 57%
    11:00 +31°C° 0 mm 2 mps 677 mmHg 53%
    12:00 +31°C° 0.3 mm 2 mps 677 mmHg 56%
    13:00 +31°C° 0.3 mm 2 mps 676 mmHg 59%
    14:00 +30°C° 0.3 mm 2 mps 676 mmHg 61%
    15:00 +29°C° 1.5 mm 2 mps 675 mmHg 67%
    16:00 +28°C° 1.5 mm 1 mps 675 mmHg 74%
    17:00 +27°C° 1.5 mm 1 mps 675 mmHg 80%
    18:00 +26°C° 0.2 mm 1 mps 675 mmHg 83%
    19:00 +24°C° 0.2 mm 1 mps 676 mmHg 85%
    20:00 +23°C° 0.2 mm 1 mps 676 mmHg 88%
    21:00 +23°C° 0.3 mm 1 mps 676 mmHg 88%
    22:00 +22°C° 0.3 mm 1 mps 676 mmHg 89%
    23:00 +22°C° 0.3 mm 1 mps 676 mmHg 89%

    Tomorrow, 24 August, Saturday

    Time Temperature Precipitation Wind Pressure Humidity
    00:00 +22°C° 0.2 mm 1 mps 676 mmHg 89%
    01:00 +22°C° 0.2 mm 1 mps 676 mmHg 89%
    02:00 +22°C° 0.2 mm 1 mps 676 mmHg 89%
    03:00 +21°C° 0 mm 1 mps 676 mmHg 89%
    04:00 +21°C° 0 mm 1 mps 676 mmHg 89%
    05:00 +21°C° 0 mm 1 mps 675 mmHg 88%
    06:00 +23°C° 0 mm 1 mps 676 mmHg 81%
    07:00 +23°C° 0 mm 0 mps 677 mmHg 74%
    08:00 +25°C° 0 mm 0 mps 678 mmHg 67%
    09:00 +28°C° 0.1 mm 1 mps 678 mmHg 63%
    10:00 +30°C° 0.1 mm 1 mps 678 mmHg 59%
    11:00 +31°C° 0.1 mm 2 mps 678 mmHg 55%
    12:00 +31°C° 0.5 mm 2 mps 677 mmHg 58%
    13:00 +31°C° 0.5 mm 2 mps 677 mmHg 61%
    14:00 +30°C° 0.5 mm 2 mps 676 mmHg 65%
    15:00 +29°C° 1.5 mm 2 mps 676 mmHg 69%
    16:00 +28°C° 1.5 mm 1 mps 675 mmHg 74%
    17:00 +27°C° 1.5 mm 1 mps 675 mmHg 79%
    18:00 +26°C° 1.2 mm 1 mps 676 mmHg 84%
    19:00 +24°C° 1.2 mm 1 mps 676 mmHg 88%
    20:00 +23°C° 1.2 mm 1 mps 677 mmHg 93%
    21:00 +23°C° 1.1 mm 1 mps 677 mmHg 93%
    22:00 +23°C° 1.1 mm 1 mps 676 mmHg 93%
    23:00 +20°C° 1.1 mm 0 mps 676 mmHg 93%

    Day after tomorrow, 25 August, Sunday

    Time Temperature Precipitation Wind Pressure Humidity
    00:00 +20°C° 0.1 mm 0 mps 676 mmHg 93%
    01:00 +20°C° 0.1 mm 0 mps 676 mmHg 93%
    02:00 +20°C° 0.1 mm 0 mps 675 mmHg 93%
    03:00 +19°C° 0 mm 0 mps 675 mmHg 93%
    04:00 +21°C° 0 mm 1 mps 675 mmHg 93%
    05:00 +21°C° 0 mm 1 mps 675 mmHg 93%
    06:00 +21°C° 0 mm 0 mps 676 mmHg 87%
    07:00 +23°C° 0 mm 0 mps 677 mmHg 81%
    08:00 +25°C° 0 mm 0 mps 677 mmHg 75%
    09:00 +28°C° 0.1 mm 1 mps 677 mmHg 72%
    10:00 +29°C° 0.1 mm 1 mps 677 mmHg 68%
    11:00 +30°C° 0.1 mm 2 mps 677 mmHg 64%
    12:00 +30°C° 0.4 mm 2 mps 676 mmHg 66%
    13:00 +30°C° 0.4 mm 2 mps 676 mmHg 68%
    14:00 +30°C° 0.4 mm 2 mps 675 mmHg 70%
    15:00 +29°C° 0.2 mm 1 mps 675 mmHg 72%
    16:00 +29°C° 0.2 mm 1 mps 675 mmHg 74%
    17:00 +28°C° 0.2 mm 1 mps 674 mmHg 76%
    18:00 +27°C° 0.2 mm 1 mps 675 mmHg 81%
    19:00 +25°C° 0.2 mm 1 mps 675 mmHg 86%
    20:00 +22°C° 0.2 mm 0 mps 675 mmHg 91%
    21:00 +21°C° 0.4 mm 0 mps 675 mmHg 93%
    22:00 +21°C° 0.4 mm 0 mps 675 mmHg 94%
    23:00 +21°C° 0.4 mm 0 mps 675 mmHg 96%

    26 August, Monday

    Time Temperature Precipitation Wind Pressure Humidity
    00:00 +21°C° 0.3 mm 0 mps 675 mmHg 96%
    01:00 +20°C° 0.3 mm 0 mps 675 mmHg 97%
    02:00 +20°C° 0.3 mm 0 mps 674 mmHg 97%
    03:00 +20°C° 0.1 mm 0 mps 674 mmHg 96%
    04:00 +20°C° 0.1 mm 0 mps 674 mmHg 96%
    05:00 +20°C° 0.1 mm 0 mps 674 mmHg 95%
    06:00 +22°C° 0 mm 0 mps 675 mmHg 91%
    07:00 +23°C° 0 mm 0 mps 675 mmHg 86%
    08:00 +24°C° 0 mm 0 mps 676 mmHg 82%
    09:00 +27°C° 0 mm 1 mps 676 mmHg 76%
    10:00 +28°C° 0 mm 1 mps 676 mmHg 71%
    11:00 +30°C° 0 mm 2 mps 676 mmHg 65%
    12:00 +30°C° 0.2 mm 2 mps 675 mmHg 67%
    13:00 +29°C° 0.2 mm 2 mps 674 mmHg 70%
    14:00 +29°C° 0.2 mm 2 mps 674 mmHg 72%
    15:00 +28°C° 0.4 mm 2 mps 673 mmHg 76%
    16:00 +27°C° 0.4 mm 1 mps 673 mmHg 81%
    17:00 +27°C° 0.4 mm 1 mps 673 mmHg 86%
    18:00 +25°C° 0.2 mm 1 mps 674 mmHg 88%
    19:00 +24°C° 0.2 mm 1 mps 674 mmHg 90%
    20:00 +23°C° 0.2 mm 1 mps 675 mmHg 92%
    21:00 +23°C° 0 mm 1 mps 675 mmHg 92%
    22:00 +23°C° 0 mm 1 mps 675 mmHg 92%
    23:00 +21°C° 0 mm 0 mps 675 mmHg 93%

    27 August, Tuesday

    Time Temperature Precipitation Wind Pressure Humidity
    00:00 +21°C° 0.1 mm 0 mps 675 mmHg 94%
    01:00 +21°C° 0.1 mm 0 mps 675 mmHg 95%
    02:00 +20°C° 0.1 mm 0 mps 674 mmHg 95%
    03:00 +20°C° 0 mm 0 mps 674 mmHg 95%
    04:00 +20°C° 0 mm 0 mps 674 mmHg 96%
    05:00 +20°C° 0 mm 0 mps 675 mmHg 96%
    06:00 +21°C° 0 mm 0 mps 675 mmHg 91%
    07:00 +23°C° 0 mm 0 mps 676 mmHg 86%
    08:00 +26°C° 0 mm 1 mps 676 mmHg 81%
    09:00 +27°C° 0 mm 1 mps 676 mmHg 75%
    10:00 +28°C° 0 mm 2 mps 676 mmHg 69%
    11:00 +30°C° 0 mm 2 mps 676 mmHg 63%
    12:00 +30°C° 0.2 mm 2 mps 676 mmHg 64%
    13:00 +29°C° 0.2 mm 2 mps 675 mmHg 65%
    14:00 +29°C° 0.2 mm 2 mps 675 mmHg 66%
    15:00 +28°C° 0.6 mm 2 mps 674 mmHg 73%
    16:00 +27°C° 0.6 mm 1 mps 674 mmHg 80%
    17:00 +26°C° 0.6 mm 1 mps 674 mmHg 87%
    18:00 +25°C° 0.7 mm 1 mps 675 mmHg 90%
    19:00 +24°C° 0.7 mm 1 mps 675 mmHg 92%
    20:00 +21°C° 0.7 mm 0 mps 676 mmHg 95%
    21:00 +21°C° 0.9 mm 0 mps 676 mmHg 95%
    22:00 +20°C° 0.9 mm 0 mps 676 mmHg 95%
    23:00 +20°C° 0.9 mm 0 mps 676 mmHg 95%

    28 August, Wednesday

    Time Temperature Precipitation Wind Pressure Humidity
    00:00 +20°C° 1.3 mm 0 mps 676 mmHg 95%
    01:00 +20°C° 1.3 mm 0 mps 676 mmHg 96%
    02:00 +20°C° 1.3 mm 0 mps 675 mmHg 96%
    03:00 +20°C° 1.9 mm 0 mps 676 mmHg 96%
    04:00 +20°C° 1.9 mm 0 mps 676 mmHg 96%
    05:00 +19°C° 1.9 mm 0 mps 676 mmHg 96%
    06:00 +20°C° 0.7 mm 0 mps 677 mmHg 95%
    07:00 +21°C° 0.7 mm 0 mps 677 mmHg 93%
    08:00 +21°C° 0.7 mm 0 mps 678 mmHg 92%
    09:00 +25°C° 0 mm 1 mps 678 mmHg 82%
    10:00 +27°C° 0 mm 1 mps 678 mmHg 72%
    11:00 +29°C° 0 mm 1 mps 678 mmHg 63%
    12:00 +29°C° 0.2 mm 2 mps 677 mmHg 65%
    13:00 +29°C° 0.2 mm 2 mps 677 mmHg 67%
    14:00 +29°C° 0.2 mm 2 mps 676 mmHg 68%
    15:00 +27°C° 0.8 mm 2 mps 676 mmHg 76%
    16:00 +26°C° 0.8 mm 1 mps 676 mmHg 83%
    17:00 +25°C° 0.8 mm 1 mps 676 mmHg 90%
    18:00 +24°C° 0.4 mm 1 mps 677 mmHg 91%
    19:00 +23°C° 0.4 mm 1 mps 677 mmHg 92%
    20:00 +20°C° 0.4 mm 0 mps 678 mmHg 94%
    21:00 +20°C° 0.9 mm 0 mps 678 mmHg 95%
    22:00 +20°C° 0.9 mm 0 mps 678 mmHg 95%
    23:00 +21°C° 0.9 mm 1 mps 678 mmHg 96%
    Show more